Weather History for KCKB - December, 2012

Change the Weather History Date:

Saturday, December 15, 2012

  Actual Average Record
Temperature  
Mean Temperature 40 °F -  
Max Temperature 53 °F 44 °F 68 °F (1975)
Min Temperature 28 °F 25 °F 6 °F (1962)
Degree Days  
Heating Degree Days 24    
Moisture  
Dew Point 28 °F    
Average Humidity 62    
Maximum Humidity 85    
Minimum Humidity 34    
Precipitation  
Precipitation 0.02 in - - ()
Sea Level Pressure  
Sea Level Pressure 30.08 in    
Wind  
Wind Speed 1 mph (SSE)    
Max Wind Speed 8 mph    
Max Gust Speed -    
Visibility 10 miles    
Events Rain    
Averages and records for this station are not official NWS values.
T = Trace of Precipitation, MM = Missing Value Source: NWS Daily Summary

Daily Weather History Graph

Daily Weather History Graph

Search for Another Location

Airport or City:

Trip Planner

Search our weather history database for the weather conditions in past years. The results will help you decide how hot, cold, wet, or windy it might be!

Date:

Astronomy

Dec. 15, 2012 Rise Set
Actual Time 7:33 AM EST 4:58 PM EST
Civil Twilight 7:03 AM EST 5:29 PM EST
Nautical Twilight 6:29 AM EST 6:02 PM EST
Astronomical Twilight 5:57 AM EST 6:35 PM EST
Moon 9:26 AM EST (12/15) 8:00 PM EST (12/15)
Length of Visible Light 10h 25m
Length of Day
9h 25m
Waxing Crescent, 8% of the Moon is Illuminated
Dec 15
Waxing Crescent
Dec 20
First Quarter
Dec 28
Full
Jan 4
Last Quarter
Jan 11
New

Hourly Weather History & Observations

Time (EST) Temp. Windchill Dew Point Humidity Pressure Visibility Wind Dir Wind Speed Gust Speed Precip Events Conditions
12:53 AM 30.0 °F - 24.1 °F 79% 30.22 in 10.0 mi Calm Calm - N/A   Clear
1:53 AM 30.0 °F - 25.0 °F 82% 30.22 in 10.0 mi Calm Calm - N/A   Clear
2:53 AM 28.9 °F - 24.1 °F 82% 30.21 in 10.0 mi Calm Calm - N/A   Clear
3:53 AM 30.0 °F - 24.1 °F 79% 30.19 in 10.0 mi Calm Calm - N/A   Clear
4:53 AM 30.9 °F - 25.0 °F 79% 30.19 in 10.0 mi Calm Calm - N/A   Clear
5:53 AM 30.9 °F - 26.1 °F 82% 30.19 in 10.0 mi Calm Calm - N/A   Clear
6:53 AM 30.0 °F - 25.0 °F 82% 30.19 in 10.0 mi Calm Calm - N/A   Clear
7:53 AM 28.9 °F - 25.0 °F 85% 30.19 in 10.0 mi Calm Calm - N/A   Clear
9:53 AM 35.1 °F - 28.9 °F 78% 30.18 in 10.0 mi Calm Calm - N/A   Clear
10:53 AM 39.0 °F - 30.0 °F 70% 30.17 in 10.0 mi Calm Calm - N/A   Clear
11:53 AM 44.1 °F - 30.0 °F 58% 30.12 in 10.0 mi Calm Calm - N/A   Clear
12:53 PM 48.9 °F - 30.0 °F 48% 30.09 in 10.0 mi Calm Calm - N/A   Clear
1:53 PM 52.0 °F - 28.9 °F 41% 30.04 in 10.0 mi Calm Calm - N/A   Clear
2:53 PM 53.1 °F - 28.9 °F 40% 30.04 in 10.0 mi Calm Calm - N/A   Clear
3:53 PM 52.0 °F - 28.0 °F 40% 30.03 in 10.0 mi Calm Calm - N/A   Mostly Cloudy
4:53 PM 53.1 °F - 25.0 °F 34% 29.99 in 10.0 mi SE 6.9 mph - 0.00 in Rain Light Rain
5:53 PM 52.0 °F - 25.0 °F 35% 29.96 in 10.0 mi ESE 8.1 mph - 0.00 in   Overcast
6:53 PM 50.0 °F - 28.0 °F 43% 29.96 in 10.0 mi Calm Calm - 0.00 in   Overcast
7:53 PM 50.0 °F - 27.0 °F 41% 29.95 in 10.0 mi Calm Calm - N/A   Overcast
8:53 PM 46.9 °F - 34.0 °F 61% 29.95 in 10.0 mi Calm Calm - 0.00 in Rain Light Rain
9:53 PM 46.0 °F 43.9 °F 37.0 °F 71% 29.96 in 10.0 mi WSW 4.6 mph - 0.01 in   Overcast
10:53 PM 48.9 °F - 35.1 °F 59% 29.95 in 10.0 mi SSE 4.6 mph - 0.01 in   Overcast
11:53 PM 50.0 °F - 36.0 °F 59% 29.91 in 10.0 mi SE 6.9 mph - N/A   Overcast